Wind_Speed
14 13 13 12 13 11 9 8 9 9 9 9 9 9 9 9 9 9 10 10 9 9 8 8 7 8 8 9 10 10 9 9 10 11 11 10 10 9 9 8 9 10 9 9 8 8 9 9 8
15 15 14 14 13 11 9 9 9 10 10 10 10 10 10 10 10 10 10 10 10 9 9 8 8 9 9 9 9 9 9 10 10 10 10 9 9 9 9 9 9 9 9 9 9 9 9 9 9
16 15 15 15 12 11 11 10 11 12 11 11 11 11 11 11 11 11 11 11 11 10 9 8 9 9 10 10 10 9 10 11 11 10 9 9 10 9 9 9 9 9 9 9 9 9 9 8 8
16 16 16 14 13 12 12 11 11 12 12 12 12 12 12 11 11 11 11 11 11 10 9 9 10 10 10 10 10 11 10 10 10 10 10 9 10 10 10 9 9 9 9 8 9 8 8 7 7
15 17 16 14 14 13 13 13 12 13 13 13 13 12 12 11 11 11 11 11 11 10 10 10 11 11 10 10 10 10 11 11 10 9 9 9 9 9 9 9 9 9 9 8 8 8 7 7 5
17 17 15 14 14 14 14 14 13 13 13 13 12 12 11 11 11 10 11 11 11 9 9 10 11 11 11 10 10 9 10 10 10 9 8 8 8 9 9 9 8 8 8 8 8 8 7 6 5
17 17 16 15 15 15 14 14 14 14 13 12 11 10 10 10 10 10 10 10 10 10 10 10 10 10 11 10 10 10 9 9 9 9 8 8 8 9 8 8 8 8 7 7 7 7 6 5 5
16 16 16 16 16 16 15 14 14 14 13 12 11 11 10 10 9 9 9 9 9 9 10 9 9 9 9 9 10 10 10 10 9 9 8 8 8 8 8 8 8 8 7 6 5 5 5 5 5
16 16 15 16 16 16 15 14 14 14 13 12 11 11 10 9 10 10 9 9 9 9 10 9 9 8 8 8 9 9 10 10 9 9 8 7 7 8 7 7 6 6 6 5 4 4 4 3 3
15 15 14 15 16 16 16 15 15 14 13 12 12 11 11 10 10 10 10 9 9 10 10 9 9 9 9 8 8 8 8 8 8 8 8 7 7 7 6 5 5 4 4 4 4 3 3 3 3
14 14 14 14 15 16 16 16 15 14 14 13 13 12 12 11 11 10 10 10 9 8 9 9 9 9 8 8 8 8 8 8 8 7 7 7 6 6 5 4 4 3 3 2 2 1 1 2 2
13 12 12 13 15 15 15 15 15 15 15 14 13 13 12 12 12 11 10 10 9 9 8 9 9 8 8 9 9 8 8 7 7 7 7 7 6 6 5 5 4 3 3 2 1 1 0 0 1
10 10 11 12 12 13 14 15 14 15 15 15 14 13 13 12 12 11 11 11 10 10 9 9 9 9 9 8 8 8 8 7 7 7 7 7 6 6 5 5 4 4 4 3 2 2 1 1 1
8 9 10 10 11 12 14 14 14 14 14 14 14 13 13 13 12 11 11 10 10 9 9 9 9 9 9 8 8 8 7 7 7 7 7 6 5 5 4 4 4 4 4 4 3 3 2 1 1
7 8 9 10 10 10 12 12 13 13 13 13 13 13 12 13 12 11 10 10 9 9 8 9 8 8 9 8 8 8 8 7 7 7 6 5 5 4 4 3 3 3 3 3 3 3 3 2 2
6 7 6 7 8 9 10 10 10 11 11 12 11 11 11 11 11 11 10 9 8 8 8 7 7 7 7 7 8 8 8 7 7 6 7 7 6 5 5 4 3 3 3 3 2 2 2 2 2
4 4 4 4 6 7 8 9 8 9 9 10 10 10 10 10 9 9 9 9 8 8 8 7 7 6 6 6 7 7 7 7 6 6 6 7 6 6 5 5 4 4 3 3 2 2 2 3 4
0 1 2 2 3 5 6 7 7 8 7 7 8 9 9 8 8 8 8 8 8 7 7 6 6 6 5 5 5 6 6 6 6 6 6 6 6 6 5 5 4 4 3 3 3 3 3 4 4
3 1 0 1 1 3 4 4 5 6 5 5 5 6 7 7 7 6 6 6 6 6 6 6 5 5 4 5 5 5 5 5 4 4 4 5 5 5 4 4 4 4 4 4 3 4 4 5 5
4 2 1 1 0 2 2 2 3 3 3 3 3 4 5 5 5 5 5 5 5 5 5 6 5 4 4 4 4 4 4 4 4 4 4 4 4 4 4 4 5 5 5 5 5 5 6 6 6
5 4 3 3 1 0 1 2 2 2 1 2 2 3 3 3 4 4 4 4 4 4 5 5 5 4 4 3 3 3 3 3 4 4 4 4 4 4 4 5 5 6 6 6 5 6 6 6 7
8 7 6 4 2 3 1 1 2 1 0 1 1 1 2 2 2 3 3 3 3 4 4 4 5 5 4 3 3 3 3 3 3 3 3 4 4 5 5 6 7 7 7 7 7 7 7 7 8
11 10 9 7 5 4 4 2 3 2 2 1 0 0 0 1 1 2 2 3 3 3 3 4 4 4 3 3 3 3 4 3 3 4 4 5 5 6 6 7 7 8 7 8 8 8 8 8 8
12 11 11 9 8 8 7 5 4 3 3 2 2 2 2 2 2 3 3 4 4 4 4 4 3 3 3 4 4 5 4 4 4 5 5 6 6 7 7 7 8 8 8 9 9 9 9 9 9
14 12 11 11 11 11 9 8 6 5 4 4 4 4 4 4 4 4 5 4 4 5 4 4 4 4 4 5 5 5 5 5 5 6 6 7 7 8 9 8 8 9 9 10 10 10 9 9 10
17 15 14 13 12 12 11 11 8 7 6 5 5 5 6 6 6 6 6 5 5 5 5 5 5 5 5 5 6 5 6 6 6 7 7 7 8 9 9 9 9 10 10 11 11 11 11 11 11
20 19 16 15 14 13 13 13 10 9 8 7 7 8 7 8 8 8 7 7 7 7 7 7 6 6 6 6 6 6 6 6 7 7 8 8 9 9 9 10 10 11 11 12 12 12 12 12 13
22 21 18 18 17 16 16 14 13 11 10 9 9 9 9 10 10 10 9 9 9 8 8 8 8 7 7 7 8 7 7 7 7 8 8 9 9 10 10 11 11 12 12 12 12 12 12 13 13
22 21 21 19 19 17 17 17 14 13 12 11 11 10 11 11 11 11 11 11 10 9 9 9 9 9 9 9 9 9 9 9 9 9 9 10 10 11 11 12 13 14 14 13 13 13 13 13 14
22 21 20 20 19 19 18 18 16 15 14 13 13 12 12 12 12 12 12 12 11 10 10 10 10 10 10 10 10 10 10 10 10 10 11 11 11 12 12 13 13 14 15 15 14 15 15 15 15
Wind_Direction
75 74 75 78 75 73 81 86 86 90 92 99 106 107 105 109 113 115 115 115 110 104 104 98 105 110 114 121 117 114 114 111 115 119 120 122 124 125 131 132 134 135 134 134 135 136 142 143 142
70 70 71 72 73 74 80 84 89 94 95 100 103 102 104 106 109 110 113 115 112 110 112 106 111 113 114 118 120 114 112 112 115 117 117 119 122 121 129 134 137 135 137 138 136 133 143 145 145
69 66 68 70 74 76 80 83 85 90 94 98 99 100 103 105 106 107 109 112 110 111 114 114 115 117 114 113 114 115 113 112 113 116 120 119 120 123 127 130 132 133 135 134 133 134 143 151 151
67 68 66 69 70 75 79 83 84 83 90 97 99 100 103 105 105 106 107 108 107 110 114 115 113 115 113 112 111 109 112 115 116 114 118 119 123 124 122 127 126 126 128 125 126 130 140 147 149
67 70 68 68 71 74 77 80 80 81 87 93 97 100 101 103 104 104 105 107 106 107 110 113 113 114 113 111 110 106 108 112 115 117 117 120 122 123 122 119 121 125 125 123 127 131 139 142 147
71 72 74 74 72 73 75 77 78 80 83 91 95 97 100 101 104 105 105 105 103 104 108 110 114 115 115 114 111 107 108 109 109 111 113 111 117 122 122 120 123 127 127 126 126 135 144 149 154
75 76 75 75 72 72 74 75 77 79 83 88 93 92 98 102 105 106 103 102 103 105 109 109 107 114 113 114 113 108 109 108 105 105 108 110 115 118 119 120 121 126 129 130 132 135 139 146 156
77 75 73 74 74 70 70 74 77 75 78 82 85 90 93 97 106 109 107 104 104 104 104 104 109 113 111 111 112 106 107 105 104 102 101 104 111 116 117 117 124 132 133 132 133 142 145 154 165
76 74 73 74 72 70 70 73 78 75 75 80 81 86 89 92 101 109 109 104 101 102 104 108 111 110 110 110 108 105 108 110 108 104 103 106 112 114 117 121 123 130 137 141 144 151 156 168 178
76 74 73 71 71 71 71 71 76 76 76 77 79 82 85 88 96 104 108 103 102 101 100 107 114 113 111 111 110 105 101 105 103 102 100 104 113 119 121 121 121 119 125 136 148 161 174 192 194
77 76 75 72 71 72 73 71 73 75 77 78 79 80 83 87 92 98 108 106 104 105 98 101 108 113 112 112 112 109 107 104 103 100 99 98 107 114 116 113 112 112 125 131 150 170 190 203 206
77 78 76 75 73 74 75 73 73 74 75 76 75 79 86 87 91 96 104 102 98 100 99 98 100 102 107 111 108 107 106 102 103 99 95 97 105 110 107 102 97 99 113 124 126 106 102 137 207
75 78 79 76 75 73 73 72 72 73 75 76 75 77 82 86 91 93 97 94 89 89 94 94 94 98 101 109 108 105 102 99 99 94 90 93 101 106 102 102 92 95 95 93 87 76 85 128 190
77 79 83 79 77 75 72 71 70 70 73 75 75 77 80 85 88 89 90 91 89 89 90 91 90 91 95 99 102 102 95 95 96 93 90 90 90 96 97 101 101 101 98 91 83 69 61 56 7
83 83 81 77 77 76 72 69 66 67 71 73 73 73 76 82 85 86 88 88 89 86 86 85 85 86 87 88 86 85 83 85 87 80 75 78 80 86 91 96 94 88 87 86 71 59 55 49 22
72 75 77 75 75 74 73 67 62 63 68 70 72 74 74 77 79 81 83 84 85 84 86 89 86 86 84 83 81 78 75 78 81 74 67 69 71 72 77 81 73 69 70 61 53 46 44 25 354
54 55 69 82 80 75 75 70 60 60 66 70 70 73 73 75 74 75 76 77 80 79 82 86 88 87 87 86 84 77 70 70 75 73 70 69 69 63 61 69 61 57 47 36 23 14 359 350 343
97 50 50 86 92 79 71 64 60 55 64 72 74 73 73 71 70 71 73 73 75 74 75 76 84 84 84 87 83 76 72 71 72 68 63 64 62 59 57 55 56 45 28 11 358 353 343 338 335
189 165 162 346 124 97 75 58 48 45 58 69 73 72 70 67 66 66 68 66 67 71 74 74 77 78 80 82 78 76 72 70 67 59 59 55 56 57 50 43 31 22 10 356 347 339 337 333 327
205 203 232 279 184 125 87 51 30 31 38 50 70 74 73 68 64 59 53 54 56 60 67 71 64 71 77 79 74 68 64 61 54 52 52 53 53 42 34 24 14 2 354 344 336 332 320 316 315
220 215 223 241 264 235 78 21 343 355 23 50 68 81 72 64 57 49 37 37 42 49 52 52 52 59 67 71 67 59 48 41 41 43 33 27 23 19 15 10 359 350 344 335 325 320 316 313 314
226 225 226 235 258 297 321 324 326 326 236 121 81 70 66 42 36 28 20 16 30 40 34 30 36 37 46 54 45 32 23 20 17 15 4 357 351 350 352 349 346 343 339 334 327 320 319 317 314
229 231 233 241 255 269 281 283 301 275 228 208 238 323 359 350 347 357 357 353 360 8 11 12 12 13 16 20 14 6 2 356 350 351 348 346 344 343 345 344 341 341 340 337 334 330 326 323 318
232 238 241 246 254 260 262 261 270 269 244 239 248 270 281 292 300 310 321 328 334 341 344 345 344 343 344 347 351 354 352 343 336 337 340 339 336 336 336 337 334 333 336 336 334 332 328 321 317
234 239 251 251 253 257 260 257 253 256 249 246 257 267 277 287 291 297 299 304 312 317 321 324 322 320 319 325 334 338 343 337 329 325 326 328 328 326 328 331 331 329 330 332 330 329 327 320 316
235 235 239 242 248 255 260 260 257 253 247 249 260 268 274 281 283 288 288 288 297 301 302 308 308 307 305 308 316 322 327 331 334 332 328 325 324 324 327 329 329 328 325 326 326 324 322 318 316
237 236 238 242 245 248 254 260 259 254 254 256 260 265 271 278 282 281 277 279 286 288 292 293 297 300 302 299 299 308 316 319 325 328 327 325 322 321 322 321 322 324 322 323 322 320 319 318 315
237 237 239 241 241 247 258 263 261 255 255 257 261 265 272 279 284 282 278 279 281 282 284 286 289 293 297 297 296 301 304 309 314 317 321 324 322 321 321 318 321 321 321 319 318 318 319 317 314
238 238 239 242 241 244 253 260 260 258 255 257 263 266 271 278 280 278 279 279 277 278 279 283 284 285 289 293 295 296 295 304 308 310 310 311 314 315 315 314 315 315 315 316 314 313 314 315 313
237 237 239 242 244 244 249 255 256 258 259 258 260 267 272 278 280 277 279 280 275 277 278 280 280 281 284 288 290 291 293 299 303 304 304 305 306 307 307 309 310 310 309 309 308 309 311 311 310
Height
5887 5886 5885 5886 5886 5886 5884 5884 5883 5881 5881 5880 5880 5880 5879 5880 5881 5882 5880 5878 5878 5878 5878 5878 5877 5877 5877 5877 5877 5877 5877 5877 5878 5878 5879 5879 5880 5881 5881 5882 5882 5882 5883 5884 5884 5885 5886 5887 5887
5888 5887 5888 5887 5887 5887 5886 5885 5884 5883 5882 5881 5881 5881 5880 5880 5881 5880 5880 5879 5880 5879 5879 5879 5879 5879 5878 5879 5879 5879 5879 5879 5879 5880 5880 5880 5881 5881 5882 5883 5883 5883 5884 5884 5885 5885 5886 5887 5888
5890 5890 5890 5890 5889 5889 5888 5886 5885 5884 5883 5882 5882 5882 5882 5882 5882 5881 5881 5881 5881 5880 5880 5880 5880 5880 5880 5880 5880 5880 5880 5880 5880 5881 5881 5881 5882 5882 5883 5883 5884 5884 5885 5885 5886 5886 5887 5888 5889
5893 5892 5893 5892 5891 5890 5889 5888 5886 5885 5884 5884 5884 5884 5883 5883 5883 5883 5882 5882 5882 5882 5882 5882 5882 5882 5882 5882 5882 5881 5881 5882 5881 5882 5882 5883 5883 5883 5884 5884 5885 5885 5886 5886 5887 5888 5888 5889 5890
5895 5895 5896 5894 5893 5892 5890 5889 5888 5887 5886 5885 5885 5885 5885 5885 5884 5884 5884 5884 5883 5883 5883 5883 5883 5883 5883 5883 5883 5883 5883 5883 5883 5883 5883 5883 5884 5884 5885 5885 5886 5886 5887 5887 5888 5889 5889 5890 5890
5898 5898 5899 5897 5895 5894 5892 5891 5890 5889 5888 5887 5887 5886 5886 5886 5886 5885 5885 5885 5885 5885 5884 5884 5884 5884 5885 5885 5885 5885 5884 5885 5885 5885 5885 5885 5885 5886 5886 5887 5887 5888 5888 5889 5889 5889 5890 5890 5891
5901 5901 5900 5899 5897 5896 5895 5893 5892 5891 5890 5889 5889 5888 5887 5887 5887 5887 5887 5887 5887 5886 5886 5886 5886 5886 5886 5886 5886 5886 5886 5886 5886 5887 5886 5886 5887 5887 5888 5888 5889 5889 5890 5890 5891 5891 5891 5891 5892
5902 5904 5903 5901 5900 5898 5897 5895 5894 5893 5892 5891 5890 5890 5889 5889 5889 5888 5888 5888 5888 5888 5888 5888 5888 5888 5888 5888 5888 5888 5887 5888 5888 5888 5888 5888 5888 5888 5889 5889 5890 5890 5890 5891 5891 5892 5892 5892 5893
5905 5907 5905 5903 5902 5900 5898 5897 5896 5895 5894 5893 5892 5892 5891 5891 5890 5890 5890 5890 5890 5890 5890 5890 5889 5889 5889 5889 5889 5889 5889 5889 5890 5889 5889 5889 5889 5890 5890 5890 5891 5891 5891 5892 5892 5892 5892 5892 5892
5908 5909 5907 5905 5904 5902 5901 5899 5898 5897 5896 5895 5895 5894 5893 5892 5892 5892 5892 5892 5892 5892 5892 5892 5891 5890 5891 5891 5891 5891 5891 5891 5891 5891 5891 5891 5891 5891 5891 5892 5892 5892 5892 5892 5892 5893 5893 5893 5892
5910 5909 5908 5907 5906 5904 5903 5902 5900 5899 5898 5898 5897 5896 5895 5895 5894 5894 5894 5894 5894 5894 5894 5893 5893 5893 5893 5893 5893 5893 5893 5893 5893 5892 5892 5892 5892 5892 5892 5892 5892 5892 5893 5893 5893 5893 5893 5893 5892
5912 5911 5910 5909 5908 5907 5905 5904 5903 5902 5901 5900 5899 5898 5898 5897 5897 5896 5896 5896 5896 5896 5896 5895 5895 5895 5895 5895 5895 5895 5895 5894 5894 5894 5893 5893 5893 5893 5893 5893 5893 5893 5893 5893 5893 5893 5893 5892 5892
5914 5913 5912 5911 5910 5909 5908 5907 5906 5904 5904 5903 5902 5901 5901 5900 5900 5899 5899 5898 5898 5898 5898 5897 5897 5897 5897 5897 5896 5896 5896 5896 5896 5895 5895 5895 5894 5894 5894 5894 5894 5894 5893 5893 5893 5893 5892 5892 5892
5916 5915 5914 5913 5912 5911 5910 5909 5909 5907 5906 5906 5905 5904 5903 5903 5902 5902 5901 5901 5901 5900 5900 5900 5899 5899 5899 5899 5898 5898 5898 5898 5897 5897 5896 5896 5896 5895 5895 5895 5895 5895 5894 5894 5894 5893 5892 5892 5892
5917 5917 5917 5915 5914 5914 5913 5912 5911 5910 5909 5908 5907 5907 5906 5905 5905 5904 5904 5903 5903 5902 5902 5902 5902 5901 5901 5900 5900 5900 5899 5899 5899 5898 5898 5897 5897 5896 5896 5896 5895 5895 5895 5895 5894 5894 5893 5893 5892
5919 5919 5919 5918 5916 5916 5917 5915 5914 5912 5911 5910 5910 5909 5908 5908 5907 5907 5906 5906 5905 5905 5904 5904 5904 5903 5903 5902 5902 5901 5901 5901 5900 5899 5899 5898 5898 5897 5897 5896 5896 5895 5895 5895 5894 5894 5893 5893 5892
5920 5921 5920 5919 5918 5917 5917 5917 5916 5914 5913 5912 5912 5911 5910 5910 5909 5908 5908 5907 5907 5907 5906 5906 5905 5905 5904 5904 5903 5902 5902 5901 5901 5900 5900 5899 5899 5898 5897 5897 5896 5896 5895 5895 5894 5894 5893 5892 5891
5922 5922 5921 5920 5919 5919 5918 5918 5917 5916 5915 5914 5913 5913 5912 5912 5911 5910 5910 5909 5909 5908 5908 5907 5907 5906 5905 5905 5904 5904 5903 5902 5902 5901 5901 5900 5899 5898 5898 5897 5896 5896 5895 5895 5894 5893 5893 5892 5891
5921 5921 5921 5920 5919 5920 5919 5919 5918 5917 5916 5915 5915 5914 5914 5913 5912 5912 5911 5911 5910 5910 5909 5908 5908 5907 5907 5906 5905 5905 5904 5903 5903 5902 5901 5900 5900 5899 5898 5897 5897 5896 5895 5894 5893 5893 5892 5891 5890
5919 5920 5920 5920 5919 5920 5919 5919 5919 5918 5917 5916 5915 5915 5915 5915 5914 5913 5913 5912 5911 5911 5910 5909 5909 5908 5908 5907 5906 5906 5905 5904 5903 5903 5902 5901 5900 5899 5898 5897 5896 5896 5894 5893 5892 5891 5890 5890 5889
5918 5919 5920 5919 5919 5919 5920 5920 5919 5918 5918 5917 5916 5916 5916 5916 5915 5914 5914 5913 5912 5911 5911 5910 5910 5909 5908 5908 5907 5906 5906 5905 5904 5903 5902 5901 5900 5899 5898 5897 5896 5895 5893 5892 5891 5890 5889 5888 5887
5917 5917 5918 5918 5919 5920 5920 5922 5920 5919 5918 5918 5917 5917 5917 5916 5916 5915 5915 5914 5913 5912 5912 5911 5910 5910 5909 5908 5908 5907 5906 5905 5904 5903 5902 5901 5900 5899 5897 5896 5895 5894 5892 5891 5890 5889 5888 5887 5886
5915 5915 5916 5917 5918 5919 5919 5921 5921 5918 5918 5918 5918 5917 5917 5917 5916 5916 5915 5914 5914 5913 5912 5911 5910 5910 5909 5908 5908 5907 5906 5905 5904 5903 5902 5901 5900 5898 5897 5896 5894 5893 5892 5890 5889 5888 5886 5885 5884
5912 5913 5914 5915 5917 5918 5918 5919 5920 5919 5918 5918 5917 5917 5917 5917 5916 5916 5915 5914 5914 5913 5912 5911 5910 5910 5909 5908 5908 5907 5906 5905 5904 5903 5902 5901 5900 5898 5897 5895 5893 5892 5891 5889 5887 5886 5885 5883 5882
5909 5911 5913 5914 5916 5916 5917 5916 5918 5918 5917 5917 5917 5917 5916 5916 5916 5915 5915 5914 5913 5912 5912 5911 5910 5909 5909 5908 5907 5906 5905 5904 5903 5902 5901 5900 5899 5897 5896 5894 5892 5891 5889 5888 5886 5885 5883 5882 5880
5905 5908 5911 5913 5915 5915 5914 5914 5916 5915 5915 5916 5916 5916 5915 5915 5915 5915 5914 5913 5912 5911 5911 5910 5909 5909 5908 5907 5906 5905 5904 5903 5902 5901 5900 5898 5897 5896 5894 5892 5891 5889 5887 5886 5884 5882 5881 5879 5878
5901 5904 5907 5908 5910 5911 5912 5912 5912 5913 5913 5914 5914 5914 5914 5914 5913 5913 5912 5912 5911 5910 5909 5909 5908 5907 5907 5906 5905 5904 5903 5902 5901 5900 5898 5897 5895 5894 5892 5891 5889 5887 5885 5883 5882 5880 5878 5877 5875
5897 5899 5902 5903 5905 5907 5909 5909 5910 5910 5911 5911 5911 5911 5911 5911 5911 5910 5910 5909 5909 5908 5908 5907 5906 5906 5905 5904 5903 5902 5901 5900 5899 5898 5896 5895 5893 5892 5890 5889 5887 5885 5883 5881 5879 5878 5876 5874 5872
5892 5894 5896 5899 5901 5904 5906 5908 5907 5907 5908 5908 5908 5909 5909 5908 5908 5908 5907 5907 5906 5906 5905 5905 5904 5904 5903 5902 5901 5900 5899 5898 5897 5895 5894 5893 5891 5890 5888 5886 5885 5883 5881 5879 5877 5875 5873 5871 5869
5887 5889 5892 5894 5896 5898 5901 5905 5903 5902 5903 5904 5905 5905 5905 5905 5905 5904 5904 5904 5903 5903 5903 5902 5902 5901 5900 5900 5899 5898 5897 5896 5894 5893 5892 5890 5889 5887 5885 5883 5882 5880 5878 5876 5874 5872 5870 5868 5866